Regional Weather Roundup
Issued by NWS Raleigh/Durham, NC

Current Version | Previous Version | Graphics & Text | Print | Product List | Glossary On
Versions: 1 2 3 4 5 6 7 8 9 10 11 12 13 14 15 16 17 18 19 20 21 22 23 24 25 26 27 28 29 30 31 32 33 34 35 36 37 38 39 40 41 42 43 44 45 46 47 48 49 50
000
ASUS42 KRAH 211910
RWRRAH
NORTH CAROLINA WEATHER ROUNDUP
NATIONAL WEATHER SERVICE RALEIGH NC
300 PM EDT TUE OCT 21 2014

NOTE: "FAIR" INDICATES FEW OR NO CLOUDS BELOW 12,000 FEET WITH NO
SIGNIFICANT WEATHER AND/OR OBSTRUCTIONS TO VISIBILITY.

NCZ001-053-055-056-065-067-212000-
WESTERN NORTH CAROLINA

CITY           SKY/WX    TMP DP  RH WIND       PRES   REMARKS
ASHEVILLE      SUNNY     66  40  38 N21G29    29.93F
JEFFERSON      CLOUDY    53  38  57 W13       29.94F
MORGANTON      PTSUNNY   70  39  32 NW12G26   29.94F
HICKORY        SUNNY     70  42  36 W12       29.89F
RUTHERFORDTON  SUNNY     72  42  33 NW16G25   29.89F
MOUNT AIRY     PTSUNNY   66  45  45 NW7       29.90F
BOONE          MOSUNNY   55  38  54 NW9G20    29.95S
$$

NCZ021-022-025-041-071-084-088-212000-
CENTRAL NORTH CAROLINA

CITY           SKY/WX    TMP DP  RH WIND       PRES   REMARKS
CHARLOTTE      MOSUNNY   73  44  35 NW6       29.88F
GREENSBORO     PTSUNNY   72  44  36 NW13      29.85F
WINSTON-SALEM  SUNNY     71  41  33 W10       29.87F
RALEIGH-DURHAM MOSUNNY   72  49  44 W7        29.84F
FORT BRAGG     MOSUNNY   75  49  40 N7        29.83F
FAYETTEVILLE   SUNNY     76  46  34 VRB6      29.84F
BURLINGTON     MOSUNNY   72  44  36 W12       29.84F
LAURINBURG     SUNNY     76  46  34 W12G17    29.85F
$$

NCZ011-015-027-028-043-044-047-080-103-212000-
NORTHEASTERN NORTH CAROLINA

CITY           SKY/WX    TMP DP  RH WIND       PRES   REMARKS
ROCKY MT-WILSO SUNNY     75  49  39 W8        29.83F
GREENVILLE     SUNNY     75  52  43 W6        29.85F
WASHINGTON     MOSUNNY   74  52  45 W6        29.83F
ELIZABETH CITY PTSUNNY   77  56  48 SW10      29.81F
MANTEO         MOSUNNY   71  57  60 NE6       29.83F
CAPE HATTERAS  SUNNY     70  58  65 SW8       29.85F
$$

NCZ078-087-090-091-093-098-101-212000-
SOUTHEASTERN NORTH CAROLINA

CITY           SKY/WX    TMP DP  RH WIND       PRES   REMARKS
LUMBERTON      SUNNY     78  47  33 W6        29.84F
GOLDSBORO      SUNNY     75  53  45 W6        29.82F
KINSTON        SUNNY     73  50  43 W3        29.84F
KENANSVILLE    SUNNY     75  46  35 W5        29.84F
NEW BERN       MOSUNNY   79  52  38 SW9       29.84F
CHERRY POINT   MOSUNNY   76  57  51 S8        29.85F
BEAUFORT       SUNNY     73  60  63 SW13      29.85F
JACKSONVILLE   MOSUNNY   77  51  40 W10       29.83F
WILMINGTON     SUNNY     78  52  40 W6        29.84F
$$




USA.gov is the U.S. government's official web portal to all federal, state and local government web resources and services.